Home > Weather > Mannheim > Past weeks

Flag for Germany Past Weather in Mannheim, Baden-Württemberg, Germany — Yesterday and Last 2 Weeks

Now
75 °F

Sunny.


Feels Like: 77 °F
Forecast: 55 / 67 °F
Wind: 2 mph from East

Location: Mannheim City

Current Time: Jul 1, 2016 at 10:47:16 PM

Latest Report: Jul 1, 2016 at 9:20 PM


Visibility: 10 mi

Pressure: 29.95 "Hg

Humidity: 61%

Dew Point: 61 °F

Location of MannheimLocation

Past Weather in Mannheim — Graph

°F

Mannheim Temperature Yesterday

Maximum temperature yesterday: 75 °F (at 6:20 PM)
Minimum temperature yesterday: 63 °F (at 6:20 AM)
Average temperature yesterday: 70 °F

High & Low Weather Summary for the Past Weeks

 TemperatureHumidityPressure
High93 °F (Jun 23, 5:50 PM)100% (Jun 18, 6:50 AM)30.24 "Hg (Jun 18, 6:50 AM)
Low52 °F (Jun 20, 5:20 AM)32% (Jun 23, 7:20 PM)29.62 "Hg (Jun 17, 3:50 AM)
Average70 °F68%30.05 "Hg
* Reported Jun 17 3:50 AM — Jul 1 9:20 PM, Mannheim, Weather by CustomWeather, © 2016

Note: Actual official high and low records may vary slightly from our data, if they occured in-between our weather recording intervals... More about our weather records

Advertising

Mannheim Weather History for the Previous 24 Hours

Scroll right to see more
 ConditionsComfort  
Time TempWeatherWind HumidityBarometerVisibility
9:20 PM
Fri, Jul 1
75 °FSunny.2 mph61%29.95 "Hg10 mi
8:50 PM77 °FSunny.2 mph54%29.95 "Hg10 mi
8:20 PM77 °FSunny.3 mph54%29.95 "Hg10 mi
7:50 PM77 °FPassing clouds.5 mph51%29.95 "HgN/A
7:20 PM77 °FPassing clouds.6 mph51%29.95 "HgN/A
6:50 PM77 °FPassing clouds.6 mph51%29.95 "HgN/A
6:20 PM79 °FPassing clouds.5 mph48%29.95 "HgN/A
5:50 PM77 °FScattered clouds.5 mph51%29.98 "HgN/A
5:20 PM77 °FScattered clouds.6 mph51%29.98 "HgN/A
4:50 PM77 °FScattered clouds.9 mph51%29.98 "HgN/A
4:20 PM77 °FPartly sunny.10 mph54%30.01 "HgN/A
3:50 PM77 °FScattered clouds.10 mph51%30.01 "HgN/A
3:20 PM75 °FPartly sunny.10 mph54%30.01 "HgN/A
2:50 PM75 °FPartly sunny.13 mph54%30.01 "HgN/A
2:20 PM75 °FPartly sunny.10 mph57%30.01 "HgN/A
1:50 PM73 °FPartly sunny.13 mph61%30.01 "HgN/A
1:20 PM73 °FPartly sunny.10 mph61%30.04 "HgN/A
12:50 PM73 °FPartly sunny.9 mph61%30.04 "HgN/A
12:20 PM72 °FBroken clouds.10 mph65%30.04 "HgN/A
11:50 AM73 °FPartly sunny.9 mph65%30.04 "HgN/A
11:20 AM73 °FScattered clouds.12 mph65%30.04 "HgN/A
10:50 AM72 °FScattered clouds.10 mph65%30.04 "HgN/A
10:20 AM72 °FScattered clouds.9 mph69%30.04 "HgN/A
9:50 AM70 °FPassing clouds.8 mph69%30.04 "HgN/A
9:20 AM68 °FPassing clouds.8 mph73%30.04 "HgN/A
8:50 AM70 °FPassing clouds.8 mph73%30.04 "HgN/A
8:20 AM68 °FPassing clouds.7 mph78%30.04 "HgN/A
7:50 AM66 °FPassing clouds.5 mph83%30.04 "HgN/A
7:20 AM64 °FPassing clouds.6 mph88%30.04 "HgN/A
6:50 AM64 °FSunny.6 mph88%30.04 "Hg10 mi
6:20 AM63 °FClear.5 mph94%30.04 "Hg10 mi
5:50 AM63 °FClear.2 mph94%30.01 "Hg10 mi
5:20 AM61 °FClear.3 mph100%30.01 "Hg10 mi
11:20 PM
Thu, Jun 30
70 °FClear.2 mph64%30.01 "Hg10 mi
10:50 PM70 °FClear.2 mph69%30.01 "Hg10 mi
10:20 PM70 °FSunny.2 mph64%30.01 "Hg10 mi
Weather by CustomWeather, © 2016

See weather overviewHow to use our weather pages